Showing default

QIANFAN-139, 69085

Orbit data source: Space-Track

QIANFAN-139, 69085 is a Chinese payload satellite in LEO that was launched on Tue, 12 May 2026 UTC via a CHANG ZHENG 6A launch vehicle from the Taiyaun Space Center, China (TSC). Payload-class satellites include a variety of spacecraft equipped with specific instruments for various scientific and technological missions. These include communications satellites like Starlink; space stations such as the ISS; scientific satellites like the Hubble; Earth observation satellites from companies like Planet Labs, Umbra, and HawkEye 360; GPS; miniature CubeSats for education and research; and military/defense satellites.

Loading next visibility...
Identifier
69085, 2026-104N
Orbit
LEO
Country
Flag of CNCN / PRC
Related business
Manufacturer
SECM
Mission
Operational spacecraft
Bus & Motor
QIANFAN, Unknown motor
Mass
267 kg wet, ~267 kg dry
Launch date (UTC)
2026-05-12 (4 weeks ago)
Launch vehicle
CHANG ZHENG 6A
Launch site
Taiyaun Space Center, China (TSC)
Object type
Payload
Rocket body
Debris
Shape & HBR
Unknown
Radar Cross Section
Large (>1 m²)

Expand to show TLE details & history
Last TLE update: 2 days ago

TLE from 2 days ago
0 QIANFAN-139
1 69085U 26104N   26155.25220191  .00000137  00000-0  56657-4 0  9996
2 69085  88.9863 343.0849 0004198 139.0119 221.1388 14.21102178  3251
Epoch: 2026-06-04T06:03Z
TLE epoch observation values (Epoch: 2026-06-04T06:03:10.245Z)
Latitude
0.00002°
Longitude
-0.40692°
Altitude
826.96 km
Speed
7.438 km/s
True Right ascension
22h 52m 20s
True Declination
0° 00' 00"
Sunlit
Object was in daylight at epoch
Visualization orbit readout
Latitude
Unknown
Longitude
Unknown
Altitude
Unknown
Speed
Unknown
Apparent Right ascension
Unknown
Apparent Declination
Unknown
Sunlit
N/A
Visualization observer readout
Local Sidereal Time
03:38:30
Azimuth
Unknown
Elevation
Unknown
Doppler factor
Unknown
Orbital elements
Apogee altitude
821.599 km
Perigee altitude
815.556 km
Semi-major axis
7,196.714 km
Eccentricity
0.00042
Inclination
88.9863°
RAAN
343.0849°
Arg. of periapsis
139.0119°
True anomaly
221.10716°
Mean anomaly
221.1388°
Eccentric anomaly
221.12298°
Mean motion
3.55502 °/min
Orbital period
101.27 mins
BSTAR
0.000056657
Loading maneuver chart data...
Computing Atmospheric mass density...
Loading historical data...
Loading historical data...
Loading historical data...
Loading historical data...
Loading historical data...
Loading historical data...
Loading historical data...

Documentation

Showing up to 5 results
|